• In Slovakia
  • List of Countries
  • For 7 days
  • Water Temperature
  • Satellite Maps
  • Weather Map
  • Weather Widgets
  • user-avatar
    Login

    Hourly Weather Fier

    Today, 23 September, Sunday

    Time Temperature Precipitation Wind Pressure Humidity
    00:00 +23°C° 0 mm 1 mps 763 mmHg 75%
    01:00 +23°C° 0 mm 1 mps 763 mmHg 74%
    02:00 +23°C° 0 mm 1 mps 763 mmHg 74%
    03:00 +23°C° 0 mm 1 mps 763 mmHg 73%
    04:00 +23°C° 0 mm 1 mps 763 mmHg 73%
    05:00 +24°C° 0 mm 1 mps 763 mmHg 68%
    06:00 +25°C° 0 mm 1 mps 763 mmHg 64%
    07:00 +26°C° 0 mm 1 mps 763 mmHg 59%
    08:00 +28°C° 0 mm 1 mps 763 mmHg 52%
    09:00 +30°C° 0 mm 1 mps 763 mmHg 45%
    10:00 +32°C° 0 mm 1 mps 764 mmHg 38%
    11:00 +34°C° 0 mm 2 mps 763 mmHg 36%
    12:00 +35°C° 0 mm 3 mps 763 mmHg 34%
    13:00 +35°C° 0 mm 3 mps 763 mmHg 32%
    14:00 +35°C° 0 mm 3 mps 763 mmHg 35%
    15:00 +34°C° 0 mm 3 mps 762 mmHg 37%
    16:00 +33°C° 0 mm 3 mps 762 mmHg 40%
    17:00 +30°C° 0 mm 2 mps 762 mmHg 47%
    18:00 +28°C° 0 mm 1 mps 762 mmHg 54%
    19:00 +25°C° 0 mm 1 mps 762 mmHg 61%
    20:00 +25°C° 0 mm 1 mps 762 mmHg 62%
    21:00 +25°C° 0 mm 1 mps 762 mmHg 62%
    22:00 +25°C° 0 mm 1 mps 762 mmHg 63%
    23:00 +24°C° 0 mm 2 mps 762 mmHg 64%

    Tomorrow, 24 September, Monday

    Time Temperature Precipitation Wind Pressure Humidity
    00:00 +24°C° 0 mm 2 mps 762 mmHg 64%
    01:00 +24°C° 0 mm 2 mps 762 mmHg 65%
    02:00 +24°C° 0 mm 2 mps 762 mmHg 66%
    03:00 +22°C° 0 mm 3 mps 761 mmHg 68%
    04:00 +22°C° 0 mm 3 mps 761 mmHg 69%
    05:00 +24°C° 0 mm 3 mps 761 mmHg 65%
    06:00 +25°C° 0 mm 3 mps 761 mmHg 62%
    07:00 +25°C° 0 mm 3 mps 761 mmHg 59%
    08:00 +27°C° 0 mm 3 mps 760 mmHg 52%
    09:00 +29°C° 0 mm 4 mps 760 mmHg 44%
    10:00 +32°C° 0 mm 4 mps 760 mmHg 37%
    11:00 +33°C° 0 mm 4 mps 760 mmHg 36%
    12:00 +33°C° 0 mm 4 mps 759 mmHg 35%
    13:00 +34°C° 0 mm 4 mps 759 mmHg 33%
    14:00 +33°C° 0 mm 4 mps 759 mmHg 37%
    15:00 +33°C° 0 mm 4 mps 758 mmHg 42%
    16:00 +32°C° 0 mm 4 mps 758 mmHg 46%
    17:00 +29°C° 0.1 mm 3 mps 759 mmHg 56%
    18:00 +27°C° 0.1 mm 2 mps 760 mmHg 67%
    19:00 +25°C° 0.1 mm 2 mps 760 mmHg 77%
    20:00 +25°C° 0.1 mm 2 mps 761 mmHg 78%
    21:00 +24°C° 0.1 mm 2 mps 761 mmHg 78%
    22:00 +24°C° 0.1 mm 2 mps 762 mmHg 79%
    23:00 +22°C° 0 mm 3 mps 762 mmHg 76%

    Day after tomorrow, 25 September, Tuesday

    Time Temperature Precipitation Wind Pressure Humidity
    00:00 +21°C° 0 mm 4 mps 762 mmHg 72%
    01:00 +21°C° 0 mm 4 mps 763 mmHg 69%
    02:00 +20°C° 0 mm 5 mps 763 mmHg 66%
    03:00 +19°C° 0 mm 5 mps 763 mmHg 63%
    04:00 +19°C° 0 mm 6 mps 763 mmHg 60%
    05:00 +19°C° 0 mm 6 mps 763 mmHg 57%
    06:00 +19°C° 0 mm 6 mps 764 mmHg 54%
    07:00 +19°C° 0 mm 6 mps 764 mmHg 50%
    08:00 +21°C° 0 mm 6 mps 764 mmHg 45%
    09:00 +23°C° 0 mm 6 mps 764 mmHg 40%
    10:00 +26°C° 0 mm 6 mps 765 mmHg 35%
    11:00 +27°C° 0 mm 7 mps 765 mmHg 33%
    12:00 +28°C° 0 mm 7 mps 764 mmHg 30%
    13:00 +29°C° 0 mm 7 mps 764 mmHg 28%
    14:00 +28°C° 0 mm 7 mps 764 mmHg 27%
    15:00 +28°C° 0 mm 7 mps 764 mmHg 27%
    16:00 +27°C° 0 mm 8 mps 764 mmHg 26%
    17:00 +24°C° 0 mm 7 mps 765 mmHg 28%
    18:00 +22°C° 0 mm 7 mps 766 mmHg 30%
    19:00 +20°C° 0 mm 7 mps 766 mmHg 32%
    20:00 +18°C° 0 mm 7 mps 767 mmHg 33%
    21:00 +17°C° 0 mm 7 mps 767 mmHg 34%
    22:00 +16°C° 0 mm 7 mps 768 mmHg 35%
    23:00 +15°C° 0 mm 7 mps 768 mmHg 36%

    26 September, Wednesday

    Time Temperature Precipitation Wind Pressure Humidity
    00:00 +14°C° 0 mm 7 mps 768 mmHg 37%
    01:00 +13°C° 0 mm 6 mps 768 mmHg 38%
    02:00 +13°C° 0 mm 6 mps 769 mmHg 39%
    03:00 +11°C° 0 mm 6 mps 769 mmHg 40%
    04:00 +10°C° 0 mm 6 mps 769 mmHg 41%
    05:00 +11°C° 0 mm 6 mps 769 mmHg 41%
    06:00 +13°C° 0 mm 6 mps 770 mmHg 40%
    07:00 +14°C° 0 mm 6 mps 770 mmHg 39%
    08:00 +16°C° 0 mm 6 mps 770 mmHg 34%
    09:00 +19°C° 0 mm 6 mps 770 mmHg 28%
    10:00 +21°C° 0 mm 6 mps 770 mmHg 22%
    11:00 +22°C° 0 mm 6 mps 770 mmHg 20%
    12:00 +23°C° 0 mm 6 mps 769 mmHg 18%
    13:00 +23°C° 0 mm 6 mps 769 mmHg 16%
    14:00 +23°C° 0 mm 6 mps 769 mmHg 16%
    15:00 +23°C° 0 mm 6 mps 769 mmHg 16%
    16:00 +22°C° 0 mm 6 mps 769 mmHg 17%
    17:00 +20°C° 0 mm 5 mps 769 mmHg 20%
    18:00 +17°C° 0 mm 5 mps 770 mmHg 23%
    19:00 +15°C° 0 mm 5 mps 770 mmHg 25%
    20:00 +14°C° 0 mm 5 mps 771 mmHg 27%
    21:00 +14°C° 0 mm 4 mps 771 mmHg 28%
    22:00 +13°C° 0 mm 4 mps 771 mmHg 30%
    23:00 +13°C° 0 mm 4 mps 771 mmHg 32%

    27 September, Thursday

    Time Temperature Precipitation Wind Pressure Humidity
    00:00 +12°C° 0 mm 4 mps 771 mmHg 34%
    01:00 +12°C° 0 mm 4 mps 771 mmHg 36%
    02:00 +11°C° 0 mm 4 mps 770 mmHg 37%
    03:00 +11°C° 0 mm 4 mps 770 mmHg 37%
    04:00 +11°C° 0 mm 4 mps 770 mmHg 38%
    05:00 +12°C° 0 mm 4 mps 770 mmHg 36%
    06:00 +13°C° 0 mm 4 mps 770 mmHg 34%
    07:00 +14°C° 0 mm 4 mps 769 mmHg 32%
    08:00 +17°C° 0 mm 4 mps 769 mmHg 27%
    09:00 +20°C° 0 mm 4 mps 769 mmHg 22%
    10:00 +23°C° 0 mm 4 mps 768 mmHg 16%
    11:00 +25°C° 0 mm 5 mps 767 mmHg 15%
    12:00 +26°C° 0 mm 5 mps 767 mmHg 15%
    13:00 +27°C° 0 mm 6 mps 766 mmHg 14%
    14:00 +27°C° 0 mm 6 mps 765 mmHg 15%
    15:00 +27°C° 0 mm 6 mps 765 mmHg 16%
    16:00 +27°C° 0 mm 7 mps 764 mmHg 16%
    17:00 +23°C° 0 mm 7 mps 765 mmHg 20%
    18:00 +21°C° 0 mm 6 mps 765 mmHg 24%
    19:00 +19°C° 0 mm 6 mps 765 mmHg 28%
    20:00 +17°C° 0 mm 6 mps 765 mmHg 29%
    21:00 +16°C° 0 mm 6 mps 765 mmHg 29%
    22:00 +16°C° 0 mm 5 mps 764 mmHg 29%
    23:00 +15°C° 0 mm 5 mps 764 mmHg 31%

    28 September, Friday

    Time Temperature Precipitation Wind Pressure Humidity
    00:00 +15°C° 0 mm 5 mps 764 mmHg 32%
    01:00 +15°C° 0 mm 4 mps 764 mmHg 33%
    02:00 +14°C° 0 mm 4 mps 764 mmHg 34%
    03:00 +14°C° 0 mm 4 mps 763 mmHg 35%
    04:00 +14°C° 0 mm 4 mps 763 mmHg 35%
    05:00 +15°C° 0 mm 4 mps 763 mmHg 35%
    06:00 +15°C° 0 mm 4 mps 763 mmHg 34%
    07:00 +17°C° 0 mm 4 mps 763 mmHg 33%
    08:00 +20°C° 0 mm 4 mps 763 mmHg 27%
    09:00 +23°C° 0 mm 4 mps 762 mmHg 22%
    10:00 +26°C° 0 mm 3 mps 762 mmHg 16%
    11:00 +27°C° 0 mm 3 mps 762 mmHg 16%
    12:00 +28°C° 0 mm 3 mps 761 mmHg 15%
    13:00 +29°C° 0 mm 2 mps 761 mmHg 14%
    14:00 +28°C° 0 mm 3 mps 760 mmHg 15%
    15:00 +28°C° 0 mm 3 mps 760 mmHg 16%
    16:00 +28°C° 0 mm 3 mps 760 mmHg 17%
    17:00 +26°C° 0 mm 3 mps 760 mmHg 21%
    18:00 +24°C° 0 mm 3 mps 760 mmHg 25%
    19:00 +20°C° 0 mm 3 mps 760 mmHg 29%
    20:00 +20°C° 0 mm 3 mps 760 mmHg 28%
    21:00 +19°C° 0 mm 3 mps 760 mmHg 27%
    22:00 +19°C° 0 mm 2 mps 760 mmHg 27%
    23:00 +19°C° 0 mm 2 mps 760 mmHg 26%
    Show more